User: anonymous
Location: Unspecified
(0.0000°N, 0.0000°E)
Time: 12:09:57
(UTC+00:00)
Language:

N. Korean satellite - Orbit

View from above orbital plane
View from above orbital plane
View from above satellite
View from above satellite

Ground track
Ground track

The orbit data is extracted from the following two-line orbital elements,

1 39026U 12072A   14110.41576388  .00012649  00000-0  68479-3 0   317
2 39026 097.3337 152.1802 0051954 268.5023 091.0257 15.13584597 74635
Epoch (UTC): 20 April 2014 09:58:41
Eccentricity: 0.0051954
inclination: 97.3337°
perigee height: 489 km
apogee height: 561 km
right ascension of ascending node: 152.1802°
argument of perigee: 268.5023°
revolutions per day: 15.13584597
mean anomaly at epoch: 91.0257°
orbit number at epoch: 7463

The dashed part of the orbit path shows where the satellite is in the earth's shadow,  

DLR